Tracking 17631 objects as of 6-May-2016
HD Live streaming from Space Station
objects crossing your sky now

THORAD AGENA D DEB


10-day predictions


NORAD ID: 4177
Int'l Code: 1969-082AV
Perigee: 856.9 km
Apogee: 1,027.9 km
Inclination: 70.1 °
Period: 103.7 minutes
Semi major axis: 7313 km
RCS: 0.0743 m2 (small)
Launch date: September 30, 1969
Source: United States (US)
Launch site: AIR FORCE WESTERN TEST RANGE (AFWTR)

Note: This is SATELLITE DEBRIS
Your satellite tracking list
Your tracking list is empty





NASA's NSSDC Master Catalog

Two Line Element Set (TLE):
1  4177U 69082AV  16125.94822103 -.00000009 +00000-0 +33426-4 0  9990
2  4177 070.0708 087.4159 0116923 124.1460 237.0797 13.88106746342881
Source of the keplerian elements: AFSPC

N2YO: 512